Home > Weather > Tuba City > Past weeks

Flag for USA Past Weather in Tuba City, Arizona, USA — Yesterday and Last 2 Weeks

Now
90 °F

Sunny.


Feels Like: 86 °F
Forecast: 61 / 98 °F
Wind: 6 mph from North

Location: Grand Canyon National Park Airport

Current Time: Jul 23, 2016 at 3:18:29 PM

Latest Report: Jul 23, 2016 at 2:54 PM


Visibility: 10 mi

Pressure: 29.92 "Hg (25.27 "Hg at 1510m altitude)

Humidity: 15%

Dew Point: 37 °F

Location of Tuba CityLocation

Past Weather in Tuba City — Graph

°F

Tuba City Temperature Yesterday

Maximum temperature yesterday: 91 °F (at 2:54 PM)
Minimum temperature yesterday: 55 °F (at 5:54 AM)
Average temperature yesterday: 72 °F

High & Low Weather Summary for the Past Weeks

 TemperatureHumidityPressure
High94 °F (Jul 15, 3:54 PM)93% (Jul 19, 5:54 AM)30.40 "Hg (Jul 19, 5:54 AM)
Low40 °F (Jul 12, 5:54 AM)6% (Jul 12, 1:54 PM)29.71 "Hg (Jul 10, 7:54 PM)
Average71 °F35%29.97 "Hg
* Reported Jul 8 1:54 PM — Jul 23 1:54 PM, Tuba City, Weather by CustomWeather, © 2016

Note: Actual official high and low records may vary slightly from our data, if they occured in-between our weather recording intervals... More about our weather records

Advertising

Tuba City Weather History for the Previous 24 Hours

Scroll right to see more
 ConditionsComfort  
Time TempWeatherWind HumidityBarometerVisibility
1:54 PM
Sat, Jul 23
90 °FSunny.12 mph15%29.93 "Hg10 mi
12:54 PM89 °FSunny.N/A17%29.94 "Hg10 mi
11:54 AM87 °FSunny.6 mph21%29.95 "Hg10 mi
10:54 AM85 °FSunny.10 mph24%29.96 "Hg10 mi
9:54 AM83 °FSunny.6 mph23%29.96 "Hg10 mi
8:54 AM77 °FSunny.3 mph37%29.96 "Hg10 mi
7:54 AM64 °FSunny.6 mph68%30.01 "Hg10 mi
6:54 AM53 °FSunny.No wind86%30.06 "Hg10 mi
5:54 AM54 °FClear.No wind90%30.02 "Hg10 mi
4:54 AM56 °FClear.5 mph84%29.98 "Hg10 mi
3:54 AM57 °FClear.No wind87%29.97 "Hg10 mi
2:54 AM60 °FClear.No wind78%29.96 "Hg10 mi
1:54 AM62 °FClear.No wind78%29.97 "Hg10 mi
12:54 AM62 °FClear.5 mph78%29.99 "Hg10 mi
11:54 PM
Fri, Jul 22
64 °FPassing clouds.No wind75%30.01 "Hg10 mi
10:54 PM67 °FThundershowers. Passing clouds.6 mph68%30.01 "Hg10 mi
9:54 PM67 °FPassing clouds.3 mph66%30.02 "Hg10 mi
8:54 PM74 °FThunderstorms. Overcast.7 mph38%30.01 "Hg10 mi
7:54 PM71 °FScattered clouds.3 mph53%30.01 "Hg10 mi
6:54 PM69 °FOvercast.6 mph63%30.03 "Hg10 mi
5:53 PM76 °FOvercast.8 mph42%30.01 "Hg10 mi
4:54 PM84 °FThunderstorms. Overcast.6 mph29%29.97 "Hg10 mi
3:54 PM88 °FPassing clouds.7 mph20%29.97 "Hg10 mi
Weather by CustomWeather, © 2016

See weather overviewHow to use our weather pages